Regional Weather Roundup
Issued by NWS Binghamton, NY

Current Version | Previous Version | Text Only | Print | Product List | Glossary On
Versions: 1 2 3 4 5 6 7 8 9 10 11 12 13 14 15 16 17 18 19 20 21 22 23 24 25 26 27
000
ASUS41 KBGM 231510
RWRBGM

REGIONAL WEATHER ROUNDUP
NATIONAL WEATHER SERVICE BINGHAMTON NY
1100 AM EDT MON MAY 23 2022

Note: "fair" indicates few or no clouds below 12,000 feet with no
significant weather and/or obstructions to visibility.

* = Station(s) that does not report precipitation, such as rain,
snow, etc, also no thunder or fog.

NYZ009-015>018-022>025-036-037-044>046-055>057-062-231600
...Central New York...

CITY           SKY/WX    TMP DP  RH WIND       PRES   REMARKS
Binghamton     MOSUNNY   56  44  64 N13G20    30.27S
Cortland       CLOUDY    55  45  67 NE9       30.29S
Dansville      MOSUNNY   59  44  57 NW9       30.32S
Elmira         PTSUNNY   58  42  55 CALM      30.29S
Endicott       MOSUNNY   57  43  58 NE6       30.28S
Ithaca         MOSUNNY   55  49  80 W9        30.31S
Hamilton       MOSUNNY   57  45  62 N9        30.29S
Monticello     MOSUNNY   61  43  51 N8        30.24F
Norwich        MOSUNNY   57  45  62 N8        30.30S
Oneonta        SUNNY     55  36  47 NE9G17    30.27S
Penn Yan       PTSUNNY   58  43  57 VRB3      30.31S
Rome           MOSUNNY   60  45  57 W7        30.29F
Seneca Falls   PTSUNNY   57  46  67 NW7       30.32S
Sidney         SUNNY     61  45  55 NE5       30.27S
Skaneateles    CLOUDY    55  48  76 N5        30.30S
Syracuse       PTSUNNY   59  44  57 NE8       30.30F
$$

PAZ038>040-043-044-047-048-072-231600
...Northeast Pennsylvania...

CITY           SKY/WX    TMP DP  RH WIND       PRES   REMARKS
Hazleton       MOSUNNY   57  43  58 NE8       30.30S
Scranton       PTSUNNY   61  45  55 N10       30.27R
$$
&&
KEY
WCI = Wind Chill Index
VSB = Visibility
HX  = Heat Index
$$



USA.gov is the U.S. government's official web portal to all federal, state and local government web resources and services.